Weather History for KUDG - November, 2012

Change the Weather History Date:

Monday, November 5, 2012

  Actual Average (KFLO) Record (KFLO)
Temperature  
Mean Temperature 50 °F 58 °F  
Max Temperature 60 °F 70 °F 86 °F (1974)
Min Temperature 39 °F 47 °F 28 °F (1966)
Degree Days  
Heating Degree Days 14 7  
Month to date heating degree days 35  
Since 1 July heating degree days 152  
Cooling Degree Days 0 1  
Month to date cooling degree days 5  
Year to date cooling degree days 2047  
Moisture  
Dew Point 39 °F    
Average Humidity 67    
Maximum Humidity 87    
Minimum Humidity 36    
Precipitation  
Precipitation 0.00 in 0.09 in 0.66 in (1963)
Month to date precipitation 0.44  
Year to date precipitation 37.67  
Sea Level Pressure  
Sea Level Pressure 30.05 in    
Wind  
Wind Speed 6 mph (NNE)    
Max Wind Speed 13 mph    
Max Gust Speed -    
Visibility 10 miles    
Events      
T = Trace of Precipitation, MM = Missing Value Source: NWS Daily Summary

Daily Weather History Graph

Daily Weather History Graph

Search for Another Location

Airport or City:

Trip Planner

Search our weather history database for the weather conditions in past years. The results will help you decide how hot, cold, wet, or windy it might be!

Date:

Astronomy

Nov. 05, 2012 Rise Set
Actual Time 6:43 AM EST 5:22 PM EST
Civil Twilight 6:17 AM EST 5:48 PM EST
Nautical Twilight 5:47 AM EST 6:18 PM EST
Astronomical Twilight 5:18 AM EST 6:47 PM EST
Moon 10:57 PM EST (11/5) 12:01 PM EST (11/5)
Length of Visible Light 11h 30m
Length of Day
10h 38m
Waning Gibbous, 63% of the Moon is Illuminated
Nov 5
Waning Gibbous
Nov 6
Last Quarter
Nov 13
New
Nov 20
First Quarter
Nov 28
Full

Hourly Weather History & Observations

Time (EST) Temp. Windchill Dew Point Humidity Pressure Visibility Wind Dir Wind Speed Gust Speed Precip Events Conditions
12:15 AM 50.0 °F - 46.4 °F 87% 30.01 in 10.0 mi NNE 4.6 mph - N/A   Mostly Cloudy
12:35 AM 50.0 °F - 44.6 °F 82% 30.01 in 10.0 mi NE 6.9 mph - N/A   Mostly Cloudy
12:55 AM 50.0 °F - 44.6 °F 82% 30.01 in 10.0 mi NNE 6.9 mph - N/A   Scattered Clouds
1:15 AM 48.2 °F - 44.6 °F 87% 30.00 in 10.0 mi NE 6.9 mph - N/A   Mostly Cloudy
1:35 AM 48.2 °F - 42.8 °F 82% 30.00 in 10.0 mi NNE 5.8 mph - N/A   Mostly Cloudy
1:55 AM 48.2 °F - 42.8 °F 82% 30.01 in 10.0 mi NE 4.6 mph - N/A   Scattered Clouds
2:15 AM 48.2 °F - 42.8 °F 82% 30.01 in 10.0 mi NE 5.8 mph - N/A   Mostly Cloudy
2:35 AM 48.2 °F - 42.8 °F 82% 30.01 in 10.0 mi NNE 5.8 mph - N/A   Overcast
2:55 AM 48.2 °F - 42.8 °F 82% 30.02 in 10.0 mi North 5.8 mph - N/A   Overcast
3:15 AM 48.2 °F - 42.8 °F 82% 30.01 in 10.0 mi North 6.9 mph - N/A   Overcast
3:35 AM 48.2 °F - 42.8 °F 82% 30.02 in 10.0 mi North 6.9 mph - N/A   Overcast
3:55 AM 48.2 °F - 42.8 °F 82% 30.02 in 10.0 mi North 6.9 mph - N/A   Mostly Cloudy
4:15 AM 48.2 °F - 42.8 °F 82% 30.02 in 10.0 mi North 6.9 mph - N/A   Mostly Cloudy
4:35 AM 46.4 °F 41.9 °F 42.8 °F 87% 30.03 in 10.0 mi North 9.2 mph - N/A   Mostly Cloudy
4:55 AM 48.2 °F - 41.0 °F 76% 30.03 in 10.0 mi North 6.9 mph - N/A   Overcast
5:15 AM 46.4 °F 42.4 °F 41.0 °F 81% 30.05 in 10.0 mi North 8.1 mph - N/A   Overcast
5:35 AM 46.4 °F 42.9 °F 42.8 °F 87% 30.05 in 10.0 mi North 6.9 mph - N/A   Mostly Cloudy
5:55 AM 46.4 °F 41.9 °F 41.0 °F 81% 30.05 in 10.0 mi North 9.2 mph - N/A   Mostly Cloudy
6:15 AM 46.4 °F 42.9 °F 41.0 °F 81% 30.06 in 10.0 mi North 6.9 mph - N/A   Overcast
6:35 AM 46.4 °F 42.9 °F 41.0 °F 81% 30.06 in 10.0 mi North 6.9 mph - N/A   Mostly Cloudy
6:55 AM 46.4 °F 43.5 °F 39.2 °F 76% 30.06 in 10.0 mi North 5.8 mph - N/A   Mostly Cloudy
7:15 AM 44.6 °F 40.7 °F 39.2 °F 81% 30.07 in 10.0 mi North 6.9 mph - N/A   Scattered Clouds
7:35 AM 46.4 °F 42.9 °F 39.2 °F 76% 30.08 in 10.0 mi North 6.9 mph - N/A   Partly Cloudy
7:55 AM 46.4 °F 42.4 °F 37.4 °F 71% 30.08 in 10.0 mi North 8.1 mph - N/A   Clear
8:15 AM 48.2 °F - 37.4 °F 66% 30.09 in 10.0 mi North 8.1 mph - N/A   Clear
8:35 AM 48.2 °F - 35.6 °F 62% 30.09 in 10.0 mi North 10.4 mph - N/A   Clear
8:55 AM 48.2 °F - 37.4 °F 66% 30.09 in 10.0 mi North 12.7 mph - N/A   Clear
9:15 AM 50.0 °F - 37.4 °F 62% 30.09 in 10.0 mi North 6.9 mph - N/A   Clear
9:35 AM 51.8 °F - 37.4 °F 58% 30.09 in 10.0 mi North 6.9 mph - N/A   Clear
9:55 AM 53.6 °F - 39.2 °F 58% 30.09 in 10.0 mi NNE 3.5 mph - N/A   Clear
10:15 AM 53.6 °F - 39.2 °F 58% 30.09 in 10.0 mi North 8.1 mph - N/A   Clear
10:35 AM 55.4 °F - 39.2 °F 54% 30.09 in 10.0 mi North 8.1 mph - N/A   Clear
10:55 AM 53.6 °F - 37.4 °F 54% 30.09 in 10.0 mi NNE 8.1 mph - N/A   Clear
11:15 AM 55.4 °F - 39.2 °F 54% 30.09 in 10.0 mi North 9.2 mph - N/A   Clear
11:35 AM 55.4 °F - 37.4 °F 51% 30.08 in 10.0 mi NNW 8.1 mph - N/A   Partly Cloudy
11:55 AM 57.2 °F - 39.2 °F 51% 30.07 in 10.0 mi North 5.8 mph - N/A   Partly Cloudy
12:15 PM 57.2 °F - 37.4 °F 48% 30.06 in 10.0 mi NNW 9.2 mph - N/A   Clear
12:35 PM 57.2 °F - 35.6 °F 44% 30.06 in 10.0 mi NNW 9.2 mph - N/A   Clear
12:55 PM 59.0 °F - 37.4 °F 45% 30.05 in 10.0 mi North 8.1 mph - N/A   Clear
1:15 PM 59.0 °F - 37.4 °F 45% 30.05 in 10.0 mi North 9.2 mph - N/A   Clear
1:35 PM 59.0 °F - 39.2 °F 48% 30.04 in 10.0 mi ENE 6.9 mph - N/A   Clear
1:55 PM 60.8 °F - 37.4 °F 42% 30.04 in 10.0 mi North 8.1 mph - N/A   Clear
2:15 PM 60.8 °F - 37.4 °F 42% 30.03 in 10.0 mi NNE 8.1 mph - N/A   Clear
2:35 PM 60.8 °F - 37.4 °F 42% 30.03 in 10.0 mi NE 4.6 mph - N/A   Clear
2:55 PM 60.8 °F - 35.6 °F 39% 30.03 in 10.0 mi North 5.8 mph - N/A   Clear
3:15 PM 59.0 °F - 35.6 °F 42% 30.03 in 10.0 mi North 5.8 mph - N/A   Clear
3:35 PM 60.8 °F - 35.6 °F 39% 30.03 in 10.0 mi Calm Calm - N/A   Clear
3:55 PM 60.8 °F - 33.8 °F 36% 30.03 in 10.0 mi North 5.8 mph - N/A   Clear
4:15 PM 59.0 °F - 35.6 °F 42% 30.03 in 10.0 mi NNE 5.8 mph - N/A   Clear
4:35 PM 59.0 °F - 35.6 °F 42% 30.03 in 10.0 mi North 4.6 mph - N/A   Clear
4:55 PM 57.2 °F - 35.6 °F 44% 30.03 in 10.0 mi NNE 4.6 mph - N/A   Clear
5:15 PM 55.4 °F - 35.6 °F 47% 30.03 in 10.0 mi Calm Calm - N/A   Clear
5:35 PM 51.8 °F - 35.6 °F 54% 30.04 in 10.0 mi East 3.5 mph - N/A   Clear
5:55 PM 48.2 °F - 35.6 °F 62% 30.04 in 10.0 mi Calm Calm - N/A   Clear
6:15 PM 46.4 °F - 35.6 °F 66% 30.05 in 10.0 mi Calm Calm - N/A   Clear
6:35 PM 46.4 °F - 37.4 °F 71% 30.06 in 10.0 mi Calm Calm - N/A   Clear
6:55 PM 44.6 °F - 37.4 °F 76% 30.06 in 10.0 mi Calm Calm - N/A   Clear
7:15 PM 44.6 °F - 39.2 °F 81% 30.06 in 10.0 mi Calm Calm - N/A   Clear
7:35 PM 42.8 °F - 35.6 °F 76% 30.07 in 10.0 mi Calm Calm - N/A   Clear
7:55 PM 42.8 °F - 39.2 °F 87% 30.07 in 10.0 mi Calm Calm - N/A   Clear
8:15 PM 42.8 °F - 37.4 °F 81% 30.08 in 10.0 mi Calm Calm - N/A   Clear
8:35 PM 42.8 °F - 37.4 °F 81% 30.08 in 10.0 mi Calm Calm - N/A   Clear
8:55 PM 42.8 °F 41.1 °F 37.4 °F 81% 30.09 in 10.0 mi ENE 3.5 mph - N/A   Clear
9:15 PM 44.6 °F 42.2 °F 39.2 °F 81% 30.09 in 10.0 mi East 4.6 mph - N/A   Clear
9:35 PM 46.4 °F 43.5 °F 37.4 °F 71% 30.09 in 10.0 mi East 5.8 mph - N/A   Clear
9:55 PM 46.4 °F 43.5 °F 37.4 °F 71% 30.09 in 10.0 mi East 5.8 mph - N/A   Clear
10:15 PM 46.4 °F 44.3 °F 37.4 °F 71% 30.09 in 8.0 mi ENE 4.6 mph - N/A   Clear
10:35 PM 44.6 °F 42.2 °F 37.4 °F 76% 30.09 in 10.0 mi ENE 4.6 mph - N/A   Clear
10:55 PM 42.8 °F 40.1 °F 35.6 °F 76% 30.09 in 10.0 mi East 4.6 mph - N/A   Clear
11:15 PM 42.8 °F 39.3 °F 35.6 °F 76% 30.09 in 10.0 mi ENE 5.8 mph - N/A   Clear
11:35 PM 41.0 °F 38.0 °F 35.6 °F 81% 30.08 in 10.0 mi ENE 4.6 mph - N/A   Clear
11:55 PM 39.2 °F 35.0 °F 35.6 °F 87% 30.08 in 10.0 mi ENE 5.8 mph - N/A   Clear